カタログに戻る

STARLINK-32951

運用中通信VLEO
NORAD 63562·PAYLOAD·🇺🇸 United States

打ち上げ Apr 13, 2025 から Cape Canaveral Space Force Station

Loading…

次のパス (今後24時間)

TLE

最新Source: CelesTrak SupGP

元期: Sep 14, 2026, 20:50 UTC

1 63562C 25075Q   26257.86854167 -.00001384  00000+0 -50142-4 0  2578
2 63562  42.9997 282.3497 0001412 268.9464 261.7834 15.27573015    14

AllMySatでSTARLINK-32951をリアルタイム追跡

Download on the App Store